Regional Weather Roundup
Issued by NWS

Home | Current Version | Previous Version | Graphics & Text | Print | Product List | Glossary On
Versions: 1 2 3 4 5 6 7 8 9 10 11 12 13 14 15 16 17 18 19 20 21 22 23 24 25 26 27 28 29 30 31 32 33 34 35 36 37 38 39 40 41 42 43 44 45 46 47 48 49 50
000
ASUS43 KOAX 262002
RWRNE

WEATHER ROUNDUP FOR NEBRASKA
NATIONAL WEATHER SERVICE OMAHA NE
300 PM CDT MON JUN 26 2017

NOTES: SATELLITE DATA IS BEING USED TO AUGMENT CLOUD COVER ABOVE
       12000 FEET.
       "FAIR" INDICATES FEW OR NO CLOUDS BELOW 12,000 FEET WITH NO
       SIGNIFICANT WEATHER AND/OR OBSTRUCTIONS TO VISIBILITY.

  * THESE STATIONS DO NOT REPORT WEATHER SUCH AS RAIN...SNOW OR FOG.

NEZ001>004-019>022-054>056-262100-
NEBRASKA PANHANDLE

CITY           SKY/WX    TMP DP  RH WIND       PRES   REMARKS
SCOTTSBLUFF    SUNNY     82  42  24 VRB3      30.16F
ALLIANCE       SUNNY     78  37  22 E9        30.18F
CHADRON        SUNNY     80  37  21 E7        30.15F
GORDON         FAIR      75  39  26 SE8       30.19F
KIMBALL        SUNNY     80  49  33 E5        30.21F
SIDNEY         SUNNY     84  49  29 N9        30.18F
$$

NEZ057>060-069>072-079>082-262100-
SOUTHWEST NEBRASKA

CITY           SKY/WX    TMP DP  RH WIND       PRES   REMARKS
NORTH PLATTE   SUNNY     80  51  36 E14G25    30.15F
IMPERIAL       CLOUDY    84  55  36 N10       30.13F
LEXINGTON      MOSUNNY   74  61  64 NE7       30.15F
MCCOOK         CLOUDY    74  58  57 NE17G30   30.13S
OGALLALA       SUNNY     82  48  30 NE14G20   30.16S
$$

NEZ005>010-023>029-035>040-094-262100-
NORTH CENTRAL NEBRASKA

CITY           SKY/WX    TMP DP  RH WIND       PRES   REMARKS
VALENTINE      SUNNY     79  35  20 E12G20    30.19F
AINSWORTH      SUNNY     75  42  30 E9G22     30.20F
BROKEN BOW     SUNNY     77  44  30 E10G20    30.16F
O`NEILL        SUNNY     73  43  34 NE10G20   30.19F
ORD            SUNNY     77  41  27 NE10G21   30.15F
THEDFORD       SUNNY     77  41  27 E10G22    30.20S
$$

NEZ041-046>049-061>064-073>077-083>087-262100-
SOUTH CENTRAL NEBRASKA

CITY           SKY/WX    TMP DP  RH WIND       PRES   REMARKS
GRAND ISLAND   MOSUNNY   78  57  48 NE10G18   30.13F
AURORA         MOSUNNY   77  56  48 NE12      30.12F
HASTINGS       CLOUDY    77  59  53 N8G16     30.14F
HEBRON         LGT RAIN  76  59  55 CALM      30.10F
HOLDREGE       CLOUDY    67  63  87 NE7       30.15F
KEARNEY *      MOSUNNY   75  57  53 NE6       30.15F
YORK           MOSUNNY   77  57  50 NE13      30.12F
$$

NEZ011>018-030>034-042>045-262100-
NORTHEAST NEBRASKA

CITY           SKY/WX    TMP DP  RH WIND       PRES   REMARKS
NORFOLK        MOSUNNY   73  47  39 NE6       30.17F
ALBION         SUNNY     76  45  33 NE10G16   30.16F
BLAIR          PTSUNNY   74  54  49 E6        30.15S
FREMONT        PTSUNNY   74  51  45 N7        30.15F
TEKAMAH        MOSUNNY   76  49  38 VRB7      30.15F
WAYNE          MOSUNNY   72  45  37 NE8G16    30.17F
$$

NEZ050>053-065>068-078-088>093-262100-
SOUTHEAST NEBRASKA

CITY           SKY/WX    TMP DP  RH WIND       PRES   REMARKS
LINCOLN        MOSUNNY   74  62  66 SE6       30.13F
OMAHA EPPLEY   PTSUNNY   76  54  46 NE14G22   30.13F
BEATRICE       PTSUNNY   76  61  58 CALM      30.12F
FALLS CITY     LGT RAIN  65  54  67 S7        30.15F
NEBRASKA CITY  CLOUDY    67  62  85 SW6       30.16S
PLATTSMOUTH    MOSUNNY   71  56  58 CALM      30.15F
$$

NEZ044-045-051>053-067-262100-
OMAHA AREA

CITY           SKY/WX    TMP DP  RH WIND       PRES   REMARKS
OMAHA EPPLEY   PTSUNNY   76  54  46 NE14G22   30.13F
BLAIR          PTSUNNY   74  54  49 E6        30.15S
FREMONT        PTSUNNY   74  51  45 N7        30.15F
MILLARD        CLOUDY    75  57  54 CALM      30.13F
OFFUTT AFB     SUNNY     74  56  52 S5        30.13F
PLATTSMOUTH    MOSUNNY   71  56  58 CALM      30.15F
WAHOO          FAIR      75  53  45 NE8       30.13F
$$



USA.gov is the U.S. government's official web portal to all federal, state and local government web resources and services.